Content
SEND FEEDBACK

Daily
Averages
Monthly
Summary
United States of America

NEVADA CITY, CALIFORNIA


Home > North America > United States > California
Elevation: 2934 feet     Latitude: 39 18N     Longitude: 121 00W

WEATHER
 
SELECT A DAY
Number of Records: 67,713;   Date Range: 9/21/11 - 10/30/14
 
SHARE

PRINT THIS DATA

[ ← Previous Day ]
WEATHER ALMANAC - AUGUST 14, 2013
[ Next Day → ]
[ °C ]   °F
Weather ElementAverageHighLow
Temperature77.2 °F86 °F (1:00 pm)68 °F (4:00 am)
Dewpoint36.4 °F41 °F (9:40 am)28.4 °F (6:00 pm)
Humidity23.7 %35 % (4:00 am)13 % (6:00 pm)
Barometer30.05 in30.07 in (8:40 am)30.02 in (6:20 pm)
Wind Speed2.2 mph9.2 mph (2:00 pm)
Weather ElementAverage
Visibility8.1 mi
Wind DirectionENE (78.8 °)

Weather ElementTotal
Precipitation---
Cooling Degree Days12 (Base 65)
Growing Degree Days27 (Base 50)
Averaged from 68 records on August 14, 2013
WEATHER CONDITIONS BREAKOUT
WIND DIRECTION BREAKOUT
WEATHER BY HOUR - AUGUST 14, 2013
[ °C ]   °F
Local TimeTemperatureDewpointHumidityBarometerVisibilityWind DirectionWind SpeedGust SpeedPrecipitationEventsConditions
12:20 AM73.4 °F37.4 °F27 %30.06 in10.0 miCalmClear
12:40 AM73.4 °F37.4 °F27 %30.06 in10.0 miCalmClear
1:00 AM71.6 °F37.4 °F29 %30.06 in10.0 miCalmClear
1:20 AM73.4 °F35.6 °F25 %30.06 in10.0 miESE (110°)5.8 mphClear
1:40 AM73.4 °F37.4 °F27 %30.06 in10.0 miESE (110°)5.8 mphClear
2:00 AM73.4 °F37.4 °F27 %30.06 in10.0 miCalmClear
2:20 AM71.6 °F37.4 °F29 %30.06 in10.0 miCalmClear
2:40 AM71.6 °F37.4 °F29 %30.06 in8.0 miCalmClear
3:00 AM71.6 °F37.4 °F29 %30.05 in7.0 miCalmClear
3:20 AM71.6 °F37.4 °F29 %30.05 in6.0 miCalmClear
3:40 AM71.6 °F37.4 °F29 %30.05 in5.0 miCalmClear
4:00 AM68.0 °F39.2 °F35 %30.05 in5.0 miCalmClear
4:20 AM68.0 °F39.2 °F35 %30.05 in5.0 miCalmClear
4:40 AM68.0 °F39.2 °F35 %30.05 in6.0 miCalmClear
5:00 AM68.0 °F39.2 °F35 %30.05 in7.0 miCalmClear
5:20 AM68.0 °F39.2 °F35 %30.05 in9.0 miCalmClear
5:40 AM68.0 °F39.2 °F35 %30.05 in10.0 miCalmClear
6:00 AM68.0 °F39.2 °F35 %30.05 in10.0 miCalmClear
6:20 AM68.0 °F39.2 °F35 %30.05 in10.0 miCalmClear
6:40 AM69.8 °F39.2 °F33 %30.05 in9.0 miCalmClear
7:00 AM71.6 °F37.4 °F29 %30.05 in3.0 miCalmClear
7:20 AM71.6 °F37.4 °F29 %30.05 in4.0 miEast (100°)5.8 mphClear
7:40 AM73.4 °F37.4 °F27 %30.05 in4.0 miESE (110°)6.9 mphClear
8:00 AM73.4 °F37.4 °F27 %30.06 in3.0 miEast (100°)3.5 mphClear
8:20 AM75.2 °F37.4 °F25 %30.06 in3.0 miCalmClear
8:40 AM75.2 °F39.2 °F27 %30.07 in3.0 miCalmClear
9:00 AM77.0 °F39.2 °F26 %30.07 in4.0 miCalmClear
9:20 AM77.0 °F37.4 °F24 %30.07 in5.0 miCalmClear
9:40 AM77.0 °F41.0 °F28 %30.07 in4.0 miCalmClear
10:00 AM78.8 °F39.2 °F24 %30.07 in5.0 miCalmClear
10:20 AM80.6 °F39.2 °F23 %30.07 in6.0 miWNW (290°)3.5 mphClear
10:40 AM80.6 °F39.2 °F23 %30.07 in5.0 miNW (320°)4.6 mphClear
11:00 AM82.4 °F39.2 °F21 %30.07 in6.0 miCalmClear
11:40 AM82.4 °F37.4 °F20 %30.07 in8.0 miCalmClear
12:00 PM84.2 °F35.6 °F18 %30.07 in8.0 miCalmClear
1:00 PM86.0 °F35.6 °F17 %30.07 in9.0 miSW (230°)3.5 mphClear
1:20 PM86.0 °F39.2 °F19 %30.06 in8.0 miWSW (240°)8.1 mphClear
1:40 PM86.0 °F41.0 °F20 %30.06 in7.0 miWest (270°)8.1 mphClear
2:00 PM86.0 °F41.0 °F20 %30.06 in9.0 miWest (260°)9.2 mphClear
2:20 PM84.2 °F41.0 °F22 %30.06 in7.0 miWSW (250°)6.9 mphClear
2:40 PM84.2 °F39.2 °F20 %30.06 in9.0 miSW (230°)6.9 mphClear
3:00 PM84.2 °F37.4 °F19 %30.06 in8.0 miCalmClear
3:20 PM86.0 °F35.6 °F17 %30.05 in10.0 miWest (260°)6.9 mphClear
3:40 PM84.2 °F32.0 °F15 %30.05 in9.0 miWSW (240°)3.5 mphClear
4:00 PM86.0 °F32.0 °F14 %30.05 in10.0 miSW (230°)5.8 mphClear
4:20 PM86.0 °F32.0 °F14 %30.04 in10.0 miWNW (290°)6.9 mphClear
4:40 PM86.0 °F32.0 °F14 %30.04 in8.0 miCalmClear
5:00 PM86.0 °F32.0 °F14 %30.04 in10.0 miWest (270°)6.9 mphClear
5:20 PM86.0 °F32.0 °F14 %30.03 in10.0 miWSW (240°)6.9 mphClear
5:40 PM86.0 °F32.0 °F14 %30.03 in10.0 miSW (230°)5.8 mphClear
6:00 PM84.2 °F28.4 °F13 %30.03 in10.0 miCalmClear
6:20 PM84.2 °F32.0 °F15 %30.02 in10.0 miWest (280°)5.8 mphClear
6:40 PM84.2 °F32.0 °F15 %30.02 in10.0 miWSW (250°)5.8 mphClear
7:00 PM84.2 °F32.0 °F15 %30.02 in10.0 miCalmClear
7:20 PM82.4 °F32.0 °F16 %30.03 in10.0 miWSW (240°)3.5 mphClear
7:40 PM80.6 °F32.0 °F17 %30.03 in10.0 miCalmClear
8:00 PM78.8 °F32.0 °F18 %30.03 in10.0 miCalmClear
8:20 PM77.0 °F35.6 °F22 %30.03 in10.0 miCalmClear
8:40 PM75.2 °F37.4 °F25 %30.03 in10.0 miCalmClear
9:00 PM73.4 °F35.6 °F25 %30.03 in10.0 miCalmClear
9:20 PM73.4 °F35.6 °F25 %30.04 in10.0 miCalmClear
9:40 PM75.2 °F33.8 °F22 %30.04 in10.0 miCalmClear
10:00 PM75.2 °F33.8 °F22 %30.04 in10.0 miCalmClear
10:20 PM75.2 °F33.8 °F22 %30.04 in10.0 miESE (110°)5.8 mphClear
10:40 PM75.2 °F33.8 °F22 %30.04 in10.0 miEast (100°)4.6 mphClear
11:00 PM75.2 °F33.8 °F22 %30.04 in10.0 miCalmClear
11:20 PM71.6 °F35.6 °F27 %30.04 in10.0 miCalmClear
11:40 PM71.6 °F35.6 °F27 %30.04 in10.0 miCalmClear
Hourly data recorded from KGOO, located miles away from Nevada City, California







STORIES FROM OUR PARTNERS